Weather Roundup
Issued by NWS Corpus Christi, TX

Home | Current Version | Previous Version | Text Only | Print | Product List | Glossary On
Versions: 1 2 3 4 5 6 7 8 9 10 11 12 13 14 15 16 17 18 19 20 21 22 23 24 25 26 27 28 29 30 31 32 33 34 35 36 37 38 39 40 41 42 43 44 45 46 47 48 49 50
000
ASUS44 KCRP 272310
HRRCRP

SOUTH TEXAS REGIONAL WEATHER ROUNDUP
NATIONAL WEATHER SERVICE CORPUS CHRISTI TX
600 PM CDT WED MAY 27 2015


TXZ229>244-280000-
...CORPUS CHRISTI AREA OBSERVATIONS...

CITY           SKY/WX    TMP DP  RH WIND       PRES   REMARKS
CORPUS CHRISTI PTSUNNY   86  74  67 SE18      29.97F HX  94
NAS CORPUS CHR PTSUNNY   84  76  76 SE17      29.97F HX  93
ROCKPORT       MOSUNNY   85  75  72 SE17      29.97F HX  93
KINGSVILLE NAS MOSUNNY   87  76  69 SE18G24   29.95F HX  97
ALICE          MOSUNNY   89  72  56 SE20G29   29.94F HX  96
FALFURRIAS     MOSUNNY   87  73  62 SE13G23   29.94F HX  94
$$

...VICTORIA AREA OBSERVATIONS...

CITY           SKY/WX    TMP DP  RH WIND       PRES   REMARKS
VICTORIA       MOSUNNY   82  75  79 SE17      30.00F
BEEVILLE       FAIR      85  72  64 SE15      29.97F HX  91
PLEASANTON     SUNNY     88  69  54 SE14      29.96F HX  92
SAN ANTONIO    MOSUNNY   88  69  53 SE18      29.98F HX  92
$$

...LAREDO AREA OBSERVATIONS...

CITY           SKY/WX    TMP DP  RH WIND       PRES   REMARKS
LAREDO         SUNNY     92  70  48 SE17      29.93F HX  97
COTULLA        PTSUNNY   90  71  53 SE17      29.92F HX  96
DEL RIO        CLOUDY    85  70  60 SE12      29.91F
MCALLEN        MOSUNNY   91  72  53 SE16      29.93F HX  98
HEBBRONVILLE     N/A     88  71  57 E14G22    29.95S HX  94
$$

...OTHER TEXAS OBSERVATIONS...

CITY           SKY/WX    TMP DP  RH WIND       PRES   REMARKS
BROWNSVILLE    CLOUDY    86  76  71 E10       29.95F HX  96
HOUSTON        MOSUNNY   84  72  67 SE8       30.02F
COL. STATION   PTSUNNY   83  71  67 SE9       30.02S
AUSTIN         PTSUNNY   85  72  65 S14G23    29.96F HX  91
WACO           CLOUDY    81  71  71 S7        30.00S
FORT WORTH     CLOUDY    81  68  64 SE9       29.99F
WICHITA FALLS  TSTM      74  67  78 E22G35    30.00R
LUBBOCK        PTSUNNY   83  61  47 SE20G28   29.97F
EL PASO        CLOUDY    90  19   7 CALM      29.95F
$$

...MARINE OBSERVATIONS...

STATION/POSITION TIME  SKY/WX   TEMP    WIND        PRES    VSBY  WAVE   SWELL
                                AIR SEA DIR/SP/G                  HT/PER HT/PER
                 (UTC)          (F)     (DEG/KT/KT) (MB)    (MI)  (FT/S) (FT/S)
PORT ARANSAS     2200            81 83  110/ 16/ 17 1016.4F
BUOY 90 E PORT A 2150            80 80  110/ 19/ 21 1016.2          7/ 6
BUOY 45 SE BAFFI 2150            81 82  110/ 14/ 16 1015.0          5/ 7   3/ 7
BUOY 200 E PT IS 2150            83 82  100/ 14/ 16 1016.4          4/ 7   2/ 7
BUOY 15 E GALVES 2150            79 81  160/ 10/ 12 1016.7          3/ 6   2/ 6
$$


USA.gov is the U.S. government's official web portal to all federal, state and local government web resources and services.